Time,TemperatureF,DewpointF,PressureIn,WindDirection,WindDirectionDegrees,WindSpeedMPH,WindSpeedGustMPH,Humidity,HourlyPrecipIn,Conditions,Clouds,dailyrainin,SoftwareType,DateUTC
2013-02-22 00:01:00,45.0,37.0,29.98,North,5,0.0,3.0,74,0.00,,,0.14,,2013-02-22 06:01:00,
2013-02-22 00:11:00,44.0,37.0,29.97,SSW,203,0.0,5.0,76,0.00,,,0.14,,2013-02-22 06:11:00,
2013-02-22 00:21:00,44.0,37.0,29.97,SSW,203,0.0,5.0,76,0.00,,,0.14,,2013-02-22 06:21:00,
2013-02-22 00:31:00,44.0,37.0,29.98,WNW,295,1.0,7.0,76,0.00,,,0.14,,2013-02-22 06:31:00,
2013-02-22 00:42:00,44.0,37.0,29.98,WNW,295,1.0,7.0,76,0.00,,,0.14,,2013-02-22 06:42:00,
2013-02-22 00:52:00,43.0,36.0,29.98,NE,40,0.0,4.0,77,0.00,,,0.14,,2013-02-22 06:52:00,
2013-02-22 01:01:00,42.0,36.0,29.98,North,352,0.0,3.0,78,0.00,,,0.14,,2013-02-22 07:01:00,
2013-02-22 01:11:00,41.0,35.0,29.99,NW,316,0.0,6.0,79,0.00,,,0.14,,2013-02-22 07:11:00,
2013-02-22 01:21:00,41.0,35.0,29.99,NW,316,0.0,6.0,79,0.00,,,0.14,,2013-02-22 07:21:00,
2013-02-22 01:31:00,41.0,35.0,29.98,ENE,63,0.0,4.0,79,0.00,,,0.14,,2013-02-22 07:31:00,
2013-02-22 01:42:00,40.0,34.0,30.01,WNW,297,0.0,3.0,79,0.00,,,0.14,,2013-02-22 07:42:00,
2013-02-22 01:52:00,40.0,34.0,30.01,WNW,297,0.0,3.0,79,0.00,,,0.14,,2013-02-22 07:52:00,
2013-02-22 02:01:00,40.0,34.0,30.01,West,270,1.0,4.0,80,0.00,,,0.14,,2013-02-22 08:01:00,
2013-02-22 02:11:00,40.0,35.0,30.02,West,266,0.0,4.0,81,0.00,,,0.14,,2013-02-22 08:11:00,
2013-02-22 02:21:00,40.0,35.0,30.02,West,266,0.0,4.0,81,0.00,,,0.14,,2013-02-22 08:21:00,
2013-02-22 02:31:00,39.0,34.0,30.02,WNW,283,1.0,7.0,82,0.00,,,0.14,,2013-02-22 08:31:00,
2013-02-22 02:41:00,39.0,34.0,30.02,WNW,283,1.0,7.0,82,0.00,,,0.14,,2013-02-22 08:41:00,
2013-02-22 02:52:00,38.0,33.0,30.02,WNW,302,1.0,7.0,82,0.00,,,0.14,,2013-02-22 08:52:00,
2013-02-22 03:03:00,37.0,32.0,30.02,SW,233,1.0,8.0,82,0.00,,,0.14,,2013-02-22 09:03:00,
2013-02-22 03:11:00,36.0,31.0,30.03,West,267,0.0,6.0,83,0.00,,,0.14,,2013-02-22 09:11:00,
2013-02-22 03:21:00,36.0,31.0,30.03,West,267,0.0,6.0,83,0.00,,,0.14,,2013-02-22 09:21:00,
2013-02-22 03:31:00,36.0,31.0,30.03,SW,215,1.0,6.0,83,0.00,,,0.14,,2013-02-22 09:31:00,
2013-02-22 03:41:00,36.0,31.0,30.03,WNW,295,1.0,7.0,82,0.00,,,0.14,,2013-02-22 09:41:00,
2013-02-22 03:52:00,36.0,31.0,30.03,WNW,295,1.0,7.0,82,0.00,,,0.14,,2013-02-22 09:52:00,
2013-02-22 04:01:00,36.0,30.0,30.03,WNW,302,1.0,6.0,80,0.00,,,0.14,,2013-02-22 10:01:00,
2013-02-22 04:11:00,35.0,29.0,30.04,WNW,302,2.0,6.0,78,0.00,,,0.14,,2013-02-22 10:11:00,
2013-02-22 04:21:00,35.0,29.0,30.04,WNW,302,2.0,6.0,78,0.00,,,0.14,,2013-02-22 10:21:00,
2013-02-22 04:31:00,34.0,28.0,30.04,SW,218,2.0,9.0,78,0.00,,,0.14,,2013-02-22 10:31:00,
2013-02-22 04:42:00,33.0,27.0,30.06,NNW,347,1.0,6.0,79,0.00,,,0.14,,2013-02-22 10:42:00,
2013-02-22 04:52:00,33.0,27.0,30.06,NNW,347,1.0,6.0,79,0.00,,,0.14,,2013-02-22 10:52:00,
2013-02-22 05:01:00,33.0,28.0,30.09,WSW,252,0.0,3.0,80,0.00,,,0.14,,2013-02-22 11:01:00,
2013-02-22 05:11:00,33.0,28.0,30.10,NW,310,0.0,1.0,80,0.00,,,0.14,,2013-02-22 11:11:00,
2013-02-22 05:21:00,33.0,28.0,30.10,NW,310,0.0,1.0,80,0.00,,,0.14,,2013-02-22 11:21:00,
2013-02-22 05:32:00,32.0,27.0,30.12,NNW,330,1.0,3.0,80,0.00,,,0.14,,2013-02-22 11:32:00,
2013-02-22 05:42:00,32.0,27.0,30.13,WSW,238,0.0,3.0,81,0.00,,,0.14,,2013-02-22 11:42:00,
2013-02-22 05:52:00,32.0,27.0,30.13,WSW,238,0.0,3.0,81,0.00,,,0.14,,2013-02-22 11:52:00,
2013-02-22 06:02:00,32.0,27.0,30.14,WSW,248,0.0,2.0,81,0.00,,,0.14,,2013-02-22 12:02:00,
2013-02-22 06:11:00,32.0,27.0,30.14,WSW,248,0.0,2.0,81,0.00,,,0.14,,2013-02-22 12:11:00,
2013-02-22 06:21:00,31.0,26.0,30.15,West,280,0.0,1.0,81,0.00,,,0.14,,2013-02-22 12:21:00,
2013-02-22 06:32:00,31.0,26.0,30.15,North,6,1.0,6.0,81,0.00,,,0.14,,2013-02-22 12:32:00,
2013-02-22 06:42:00,31.0,26.0,30.15,North,6,1.0,6.0,81,0.00,,,0.14,,2013-02-22 12:42:00,
2013-02-22 06:52:00,31.0,26.0,30.14,WNW,283,0.0,4.0,81,0.00,,,0.14,,2013-02-22 12:52:00,
2013-02-22 07:01:00,31.0,26.0,30.14,WNW,297,0.0,6.0,80,0.00,,,0.14,,2013-02-22 13:01:00,
2013-02-22 07:11:00,31.0,25.0,30.15,WNW,290,0.0,5.0,78,0.00,,,0.14,,2013-02-22 13:11:00,
2013-02-22 07:22:00,31.0,25.0,30.15,WNW,290,0.0,5.0,78,0.00,,,0.14,,2013-02-22 13:22:00,
2013-02-22 07:31:00,30.0,23.0,30.15,NNW,330,1.0,7.0,76,0.00,,,0.14,,2013-02-22 13:31:00,
2013-02-22 07:42:00,30.0,23.0,30.15,NNW,330,1.0,7.0,76,0.00,,,0.14,,2013-02-22 13:42:00,
2013-02-22 07:52:00,30.0,23.0,30.15,NNW,330,1.0,7.0,76,0.00,,,0.14,,2013-02-22 13:52:00,
2013-02-22 08:01:00,30.0,22.0,30.18,WSW,246,0.0,6.0,72,0.00,,,0.14,,2013-02-22 14:01:00,
2013-02-22 08:11:00,31.0,23.0,30.19,NE,41,0.0,3.0,71,0.00,,,0.14,,2013-02-22 14:11:00,
2013-02-22 08:21:00,31.0,23.0,30.19,NE,41,0.0,3.0,71,0.00,,,0.14,,2013-02-22 14:21:00,
2013-02-22 08:32:00,32.0,23.0,30.20,SW,217,0.0,2.0,69,0.00,,,0.14,,2013-02-22 14:32:00,
2013-02-22 08:42:00,32.0,23.0,30.20,WNW,303,0.0,3.0,68,0.00,,,0.14,,2013-02-22 14:42:00,
2013-02-22 08:53:00,32.0,23.0,30.20,WNW,303,0.0,3.0,68,0.00,,,0.14,,2013-02-22 14:53:00,
2013-02-22 09:01:00,33.0,22.0,30.22,West,280,1.0,5.0,64,0.00,,,0.14,,2013-02-22 15:01:00,
2013-02-22 09:11:00,32.0,22.0,30.21,NW,318,0.0,4.0,66,0.00,,,0.00,,2013-02-22 15:11:00,
2013-02-22 09:21:00,32.0,22.0,30.21,NW,318,0.0,4.0,66,0.00,,,0.00,,2013-02-22 15:21:00,
2013-02-22 09:32:00,33.0,22.0,30.21,WSW,245,1.0,4.0,64,0.00,,,0.00,,2013-02-22 15:32:00,
2013-02-22 09:41:00,33.0,22.0,30.21,WSW,245,1.0,4.0,64,0.00,,,0.00,,2013-02-22 15:41:00,
2013-02-22 09:52:00,34.0,23.0,30.21,WNW,296,0.0,5.0,63,0.00,,,0.00,,2013-02-22 15:52:00,
2013-02-22 10:01:00,34.0,22.0,30.21,WSW,255,1.0,5.0,60,0.00,,,0.00,,2013-02-22 16:01:00,
2013-02-22 10:12:00,35.0,23.0,30.21,WNW,285,2.0,5.0,60,0.00,,,0.00,,2013-02-22 16:12:00,
2013-02-22 10:21:00,35.0,23.0,30.21,WNW,285,2.0,5.0,60,0.00,,,0.00,,2013-02-22 16:21:00,
2013-02-22 10:31:00,35.0,23.0,30.21,NW,305,0.0,3.0,61,0.00,,,0.00,,2013-02-22 16:31:00,
2013-02-22 10:42:00,35.0,23.0,30.21,NW,305,0.0,3.0,61,0.00,,,0.00,,2013-02-22 16:42:00,
2013-02-22 10:52:00,35.0,23.0,30.20,West,281,1.0,6.0,61,0.00,,,0.00,,2013-02-22 16:52:00,
2013-02-22 11:01:00,35.0,23.0,30.20,NE,49,0.0,5.0,61,0.00,,,0.00,,2013-02-22 17:01:00,
2013-02-22 11:11:00,35.0,23.0,30.20,NNW,345,1.0,8.0,60,0.00,,,0.00,,2013-02-22 17:11:00,
2013-02-22 11:21:00,35.0,23.0,30.20,NNW,345,1.0,8.0,60,0.00,,,0.00,,2013-02-22 17:21:00,
2013-02-22 11:31:00,36.0,24.0,30.19,NE,43,1.0,7.0,61,0.00,,,0.00,,2013-02-22 17:31:00,
2013-02-22 11:42:00,36.0,23.0,30.19,WNW,298,1.0,5.0,59,0.00,,,0.00,,2013-02-22 17:42:00,
2013-02-22 11:52:00,36.0,23.0,30.19,WNW,298,1.0,5.0,59,0.00,,,0.00,,2013-02-22 17:52:00,
2013-02-22 12:01:00,37.0,24.0,30.18,NNW,348,0.0,7.0,60,0.00,,,0.00,,2013-02-22 18:01:00,
2013-02-22 12:12:00,38.0,25.0,30.17,NW,321,1.0,4.0,58,0.00,,,0.00,,2013-02-22 18:12:00,
2013-02-22 12:22:00,38.0,25.0,30.17,NW,321,1.0,4.0,58,0.00,,,0.00,,2013-02-22 18:22:00,
2013-02-22 12:32:00,38.0,24.0,30.16,NE,54,1.0,4.0,57,0.00,,,0.00,,2013-02-22 18:32:00,
2013-02-22 12:42:00,38.0,24.0,30.16,NE,54,1.0,4.0,57,0.00,,,0.00,,2013-02-22 18:42:00,
2013-02-22 12:52:00,38.0,24.0,30.16,NW,323,2.0,8.0,57,0.00,,,0.00,,2013-02-22 18:52:00,
2013-02-22 13:01:00,40.0,24.0,30.15,SW,221,0.0,6.0,53,0.00,,,0.00,,2013-02-22 19:01:00,
2013-02-22 13:11:00,42.0,26.0,30.14,NW,310,0.0,7.0,53,0.00,,,0.00,,2013-02-22 19:11:00,
2013-02-22 13:21:00,42.0,26.0,30.14,NW,310,0.0,7.0,53,0.00,,,0.00,,2013-02-22 19:21:00,
2013-02-22 13:31:00,43.0,26.0,30.13,SSE,152,1.0,6.0,51,0.00,,,0.00,,2013-02-22 19:31:00,
2013-02-22 13:41:00,44.0,27.0,30.13,WNW,291,0.0,5.0,50,0.00,,,0.00,,2013-02-22 19:41:00,
2013-02-22 13:52:00,44.0,27.0,30.13,WNW,291,0.0,5.0,50,0.00,,,0.00,,2013-02-22 19:52:00,
2013-02-22 14:01:00,44.0,27.0,30.11,NW,311,1.0,6.0,51,0.00,,,0.00,,2013-02-22 20:01:00,
2013-02-22 14:11:00,44.0,27.0,30.11,NW,311,1.0,6.0,51,0.00,,,0.00,,2013-02-22 20:11:00,
2013-02-22 14:21:00,45.0,28.0,30.10,NW,304,1.0,5.0,51,0.00,,,0.00,,2013-02-22 20:21:00,
2013-02-22 14:31:00,46.0,28.0,30.10,WNW,284,0.0,5.0,49,0.00,,,0.00,,2013-02-22 20:31:00,
2013-02-22 14:41:00,46.0,28.0,30.10,WNW,284,0.0,5.0,49,0.00,,,0.00,,2013-02-22 20:41:00,
2013-02-22 14:52:00,46.0,28.0,30.09,NE,37,2.0,7.0,49,0.00,,,0.00,,2013-02-22 20:52:00,
2013-02-22 15:01:00,46.0,28.0,30.09,NW,318,1.0,4.0,50,0.00,,,0.00,,2013-02-22 21:01:00,
2013-02-22 15:11:00,46.0,29.0,30.08,NW,314,1.0,7.0,51,0.00,,,0.00,,2013-02-22 21:11:00,
2013-02-22 15:21:00,46.0,29.0,30.08,NW,314,1.0,7.0,51,0.00,,,0.00,,2013-02-22 21:21:00,
2013-02-22 15:31:00,47.0,29.0,30.08,NNE,28,1.0,6.0,50,0.00,,,0.00,,2013-02-22 21:31:00,
2013-02-22 15:42:00,46.0,28.0,30.07,NNE,27,0.0,5.0,50,0.00,,,0.00,,2013-02-22 21:42:00,
2013-02-22 15:52:00,46.0,28.0,30.07,NNE,27,0.0,5.0,50,0.00,,,0.00,,2013-02-22 21:52:00,
2013-02-22 16:01:00,47.0,28.0,30.07,NW,314,1.0,4.0,48,0.00,,,0.00,,2013-02-22 22:01:00,
2013-02-22 16:11:00,47.0,29.0,30.07,East,89,0.0,5.0,50,0.00,,,0.00,,2013-02-22 22:11:00,
2013-02-22 16:21:00,47.0,29.0,30.07,East,89,0.0,5.0,50,0.00,,,0.00,,2013-02-22 22:21:00,
2013-02-22 16:31:00,48.0,30.0,30.08,WSW,240,0.0,4.0,49,0.00,,,0.00,,2013-02-22 22:31:00,
2013-02-22 16:41:00,48.0,30.0,30.08,ENE,75,1.0,5.0,49,0.00,,,0.00,,2013-02-22 22:41:00,
2013-02-22 16:52:00,48.0,30.0,30.08,ENE,75,1.0,5.0,49,0.00,,,0.00,,2013-02-22 22:52:00,
2013-02-22 17:01:00,47.0,28.0,30.08,NNW,347,1.0,4.0,48,0.00,,,0.00,,2013-02-22 23:01:00,
2013-02-22 17:11:00,47.0,29.0,30.07,NNE,32,0.0,2.0,50,0.00,,,0.00,,2013-02-22 23:11:00,
2013-02-22 17:21:00,47.0,29.0,30.07,NNE,32,0.0,2.0,50,0.00,,,0.00,,2013-02-22 23:21:00,
2013-02-22 17:31:00,47.0,29.0,30.08,West,264,0.0,4.0,50,0.00,,,0.00,,2013-02-22 23:31:00,
2013-02-22 17:41:00,47.0,29.0,30.08,West,264,0.0,4.0,50,0.00,,,0.00,,2013-02-22 23:41:00,
2013-02-22 17:52:00,46.0,29.0,30.08,NW,316,0.0,4.0,52,0.00,,,0.00,,2013-02-22 23:52:00,
2013-02-22 18:01:00,45.0,29.0,30.08,West,273,0.0,3.0,53,0.00,,,0.00,,2013-02-23 00:01:00,
2013-02-22 18:11:00,44.0,28.0,30.09,North,359,0.0,3.0,54,0.00,,,0.00,,2013-02-23 00:11:00,
2013-02-22 18:21:00,44.0,28.0,30.09,North,359,0.0,3.0,54,0.00,,,0.00,,2013-02-23 00:21:00,
2013-02-22 18:32:00,44.0,28.0,30.10,NNW,335,0.0,2.0,54,0.00,,,0.00,,2013-02-23 00:32:00,
2013-02-22 18:41:00,44.0,28.0,30.10,NNW,335,0.0,2.0,54,0.00,,,0.00,,2013-02-23 00:41:00,
2013-02-22 18:52:00,43.0,28.0,30.11,WSW,250,0.0,0.0,56,0.00,,,0.00,,2013-02-23 00:52:00,
2013-02-22 19:01:00,42.0,28.0,30.12,NE,56,0.0,0.0,58,0.00,,,0.00,,2013-02-23 01:01:00,
2013-02-22 19:11:00,42.0,29.0,30.13,NNW,338,0.0,0.0,60,0.00,,,0.00,,2013-02-23 01:11:00,
2013-02-22 19:21:00,42.0,29.0,30.13,NNW,338,0.0,0.0,60,0.00,,,0.00,,2013-02-23 01:21:00,
2013-02-22 19:31:00,41.0,29.0,30.14,NNW,337,0.0,0.0,62,0.00,,,0.00,,2013-02-23 01:31:00,
2013-02-22 19:41:00,41.0,29.0,30.14,NNW,337,0.0,0.0,62,0.00,,,0.00,,2013-02-23 01:41:00,
2013-02-22 19:52:00,40.0,29.0,30.15,NNW,337,0.0,0.0,65,0.00,,,0.00,,2013-02-23 01:52:00,
2013-02-22 20:01:00,40.0,29.0,30.15,North,5,0.0,0.0,64,0.00,,,0.00,,2013-02-23 02:01:00,
2013-02-22 20:11:00,40.0,29.0,30.16,NNE,20,0.0,0.0,65,0.00,,,0.00,,2013-02-23 02:11:00,
2013-02-22 20:21:00,40.0,29.0,30.16,NNE,20,0.0,0.0,65,0.00,,,0.00,,2013-02-23 02:21:00,
2013-02-22 20:31:00,39.0,28.0,30.17,NNE,20,0.0,0.0,65,0.00,,,0.00,,2013-02-23 02:31:00,
2013-02-22 20:41:00,39.0,28.0,30.17,NNE,20,0.0,0.0,65,0.00,,,0.00,,2013-02-23 02:41:00,
2013-02-22 20:52:00,38.0,29.0,30.16,NNE,20,0.0,0.0,69,0.00,,,0.00,,2013-02-23 02:52:00,
2013-02-22 21:01:00,38.0,29.0,30.15,NNE,20,0.0,0.0,70,0.00,,,0.00,,2013-02-23 03:01:00,
2013-02-22 21:11:00,39.0,29.0,30.15,ENE,74,0.0,1.0,66,0.00,,,0.00,,2013-02-23 03:11:00,
2013-02-22 21:21:00,39.0,29.0,30.15,ENE,74,0.0,1.0,66,0.00,,,0.00,,2013-02-23 03:21:00,
2013-02-22 21:31:00,39.0,27.0,30.16,ESE,103,0.0,1.0,63,0.00,,,0.00,,2013-02-23 03:31:00,
2013-02-22 21:41:00,39.0,27.0,30.16,ESE,103,0.0,1.0,63,0.00,,,0.00,,2013-02-23 03:41:00,
2013-02-22 21:52:00,39.0,27.0,30.15,NE,40,0.0,3.0,62,0.00,,,0.00,,2013-02-23 03:52:00,
2013-02-22 22:01:00,39.0,27.0,30.16,NE,45,0.0,2.0,62,0.00,,,0.00,,2013-02-23 04:01:00,
2013-02-22 22:11:00,38.0,27.0,30.16,WNW,293,0.0,0.0,64,0.00,,,0.00,,2013-02-23 04:11:00,
2013-02-22 22:21:00,38.0,27.0,30.16,WNW,293,0.0,0.0,64,0.00,,,0.00,,2013-02-23 04:21:00,
2013-02-22 22:31:00,38.0,27.0,30.16,NW,307,0.0,0.0,65,0.00,,,0.00,,2013-02-23 04:31:00,
2013-02-22 22:41:00,38.0,27.0,30.16,NW,307,0.0,0.0,65,0.00,,,0.00,,2013-02-23 04:41:00,
2013-02-22 22:52:00,37.0,27.0,30.17,West,274,0.0,0.0,66,0.00,,,0.00,,2013-02-23 04:52:00,
2013-02-22 23:02:00,37.0,27.0,30.16,West,274,0.0,0.0,67,0.00,,,0.00,,2013-02-23 05:02:00,
2013-02-22 23:12:00,37.0,27.0,30.16,West,274,0.0,0.0,67,0.00,,,0.00,,2013-02-23 05:12:00,
2013-02-22 23:22:00,37.0,27.0,30.16,NE,39,0.0,2.0,67,0.00,,,0.00,,2013-02-23 05:22:00,
2013-02-22 23:32:00,36.0,26.0,30.16,NE,39,0.0,0.0,68,0.00,,,0.00,,2013-02-23 05:32:00,
2013-02-22 23:41:00,36.0,26.0,30.16,NE,39,0.0,0.0,68,0.00,,,0.00,,2013-02-23 05:41:00,
2013-02-22 23:52:00,36.0,27.0,30.16,NE,39,0.0,0.0,69,0.00,,,0.00,,2013-02-23 05:52:00,